Wind_Speed
35 34 33 32 31 30 30 30 29 29 28 27 27 26 25 23 22 22 22 22 22 23 23 23 23 23 22 21 20 20 20 19 18 17 15 14 12 11 10 9 9 9 9 8 8 7 7 6 6 6 6 5 5 6 6 6 7 7 7 8 9 10 10 10 10 10 11 11 10 9 10 12 12 10 10 9 8 8 9 11 12 12 11 12 13 13 14 14
37 35 34 33 32 31 31 31 31 30 30 29 29 28 27 26 24 24 24 24 24 25 25 25 25 24 23 22 22 21 21 20 19 18 16 14 13 11 11 10 9 9 9 8 8 7 7 6 6 6 6 6 6 7 7 8 9 9 9 10 10 11 12 13 12 12 12 12 11 10 10 12 13 11 11 10 10 10 11 13 13 12 11 12 13 14 15 15
38 37 35 34 33 33 32 32 32 32 31 31 30 30 29 28 27 26 25 25 26 27 27 27 27 26 25 24 23 23 22 21 20 19 17 15 14 12 12 11 10 10 9 9 8 8 7 7 6 6 5 6 6 7 7 9 10 10 11 11 11 12 13 14 12 12 13 14 13 11 11 13 14 14 13 12 11 12 13 14 14 13 13 13 14 14 15 16
40 38 37 35 34 34 33 33 33 33 32 32 32 31 31 30 28 27 27 27 28 29 29 29 28 28 26 25 24 24 23 22 21 20 18 17 15 14 13 12 11 11 10 10 9 8 8 7 7 6 5 6 6 6 7 8 10 10 12 12 12 13 14 14 13 13 14 15 15 13 13 13 14 15 15 14 13 13 14 14 15 15 15 15 15 15 15 16
41 39 38 37 36 35 34 33 33 33 33 33 32 32 32 31 30 29 29 29 30 31 31 31 30 29 28 27 26 25 24 23 22 21 20 18 17 16 15 14 13 13 12 11 10 9 8 8 8 7 6 7 7 7 7 9 10 11 12 13 13 14 15 15 14 14 14 15 15 15 14 15 15 16 17 17 16 15 15 15 16 16 17 17 17 16 17 17
42 40 39 38 37 36 35 34 34 34 33 33 33 33 33 32 32 31 30 31 32 33 33 33 32 31 29 28 27 27 26 24 23 22 21 20 19 18 17 16 15 14 14 13 12 11 11 10 10 9 8 8 9 9 8 9 10 11 14 14 13 15 16 16 15 15 15 15 16 16 16 16 16 17 18 18 19 18 17 17 17 18 18 18 18 18 18 18
42 41 40 39 38 37 36 36 36 35 34 34 34 34 34 34 33 32 32 32 33 35 35 35 34 32 31 30 29 28 27 25 24 23 22 21 20 19 18 18 17 16 15 14 13 13 13 13 12 10 10 10 11 10 10 10 11 12 15 15 14 15 17 17 16 16 16 16 17 17 17 17 18 18 19 21 21 20 19 19 19 19 20 19 19 19 19 20
43 42 41 40 39 38 38 37 37 37 36 36 36 36 36 36 35 34 33 33 35 36 37 37 36 34 32 31 31 30 29 27 25 24 23 22 21 20 20 19 18 17 17 16 15 15 15 14 13 12 12 12 13 13 12 12 12 13 15 15 14 15 17 17 17 17 17 17 18 19 19 18 19 20 21 23 24 23 21 20 20 20 21 21 20 20 20 20
43 42 42 41 40 39 39 39 38 38 38 38 38 38 38 37 37 36 35 35 36 38 39 38 37 36 34 33 32 31 30 29 27 26 24 23 23 22 21 20 20 19 18 18 17 17 17 16 16 15 15 14 15 15 14 13 14 14 15 16 15 14 16 18 18 17 17 18 19 21 21 20 21 21 22 25 25 24 23 22 22 22 22 22 22 22 21 21
42 42 42 42 41 41 40 40 40 39 39 39 39 39 39 39 39 38 37 37 38 39 41 40 39 37 36 35 34 33 32 30 29 27 26 25 24 23 22 22 21 20 19 19 18 18 18 18 18 17 17 16 16 16 16 15 15 15 15 16 17 16 16 18 19 18 18 19 21 23 23 22 22 23 24 26 26 26 25 24 24 23 23 23 23 23 22 21
42 42 42 41 41 41 41 41 41 40 40 40 40 40 40 40 40 40 39 39 39 41 42 42 41 39 38 37 36 35 33 32 31 29 28 27 25 25 24 23 22 21 21 20 20 19 20 20 20 20 19 18 18 18 18 17 17 17 16 17 18 18 18 19 20 21 20 21 23 25 24 24 24 24 25 26 26 27 27 26 25 24 24 23 23 22 22 21
41 41 41 41 41 41 41 41 41 41 41 41 41 41 41 41 42 41 41 41 41 43 44 44 42 41 40 39 38 36 34 33 32 31 30 28 28 27 25 25 24 23 22 22 21 21 21 21 21 21 21 20 20 20 19 19 19 18 18 19 20 21 21 21 21 22 23 23 25 27 26 25 26 26 27 27 27 27 28 27 26 24 23 23 22 21 21 21
41 41 41 40 40 40 40 40 40 40 41 41 41 41 42 42 42 42 42 42 43 44 45 45 44 43 42 41 40 38 36 35 33 32 31 30 30 29 28 27 26 25 25 24 23 23 22 22 22 22 22 22 22 22 21 20 20 20 20 21 22 23 23 23 23 23 24 25 27 29 28 26 28 29 28 28 27 27 27 26 25 24 23 22 22 21 21 21
41 41 40 40 40 39 40 39 40 40 40 41 41 41 42 42 42 43 43 43 44 45 46 47 46 45 44 43 41 40 38 37 35 34 33 32 31 30 29 29 28 27 26 26 25 25 24 24 24 23 23 23 23 23 23 22 22 22 22 23 25 25 24 24 25 25 26 27 28 31 30 27 29 31 30 28 27 26 25 24 24 24 23 22 22 22 22 23
42 42 41 41 40 40 39 39 39 40 40 40 41 41 41 42 42 43 43 44 45 46 47 48 47 47 46 44 43 42 40 38 37 36 35 34 33 32 31 31 30 29 28 28 27 26 26 25 25 25 25 25 25 25 24 23 23 24 26 26 26 26 26 25 26 27 28 29 30 32 32 29 30 32 31 28 27 26 25 25 25 25 25 24 24 25 25 25
43 42 42 42 41 41 40 40 40 40 40 40 40 41 41 41 42 43 43 44 45 46 48 48 48 48 47 45 44 43 41 39 38 37 36 36 35 34 33 32 32 31 30 29 29 28 28 27 27 26 26 26 26 26 25 25 25 27 29 29 28 27 27 27 28 29 30 31 32 33 33 30 30 32 30 28 27 26 26 26 27 27 27 28 28 28 29 29
44 43 43 43 42 42 42 41 41 41 40 40 40 40 41 41 42 42 43 44 45 46 48 48 48 48 48 46 45 43 42 40 39 39 38 38 37 36 35 34 34 33 32 31 30 30 29 29 29 28 27 27 27 27 28 27 28 30 31 30 29 29 29 29 30 30 31 32 33 33 33 30 31 32 30 28 28 27 27 27 27 26 27 28 29 30 31 31
46 45 44 44 43 43 43 42 42 42 41 40 40 41 41 41 42 43 43 45 46 47 48 48 48 49 48 46 44 42 42 42 41 41 40 39 38 37 37 36 35 34 33 33 32 32 32 31 30 30 29 28 28 29 30 30 31 32 31 31 31 31 31 32 32 32 33 33 33 33 32 30 31 32 30 30 29 28 27 26 26 25 26 27 28 28 29 29
48 47 46 45 44 44 43 43 43 43 42 42 42 42 42 42 43 43 44 45 46 46 47 47 46 47 47 45 44 43 43 43 43 42 42 41 40 39 38 37 36 36 35 35 34 34 33 33 32 31 29 29 30 32 32 32 33 33 32 33 33 33 33 33 34 34 34 34 33 33 33 31 30 30 31 32 31 28 26 26 25 25 26 27 28 28 29 28
50 49 48 47 46 45 45 45 44 44 43 43 43 43 43 43 44 44 44 45 45 44 45 45 45 46 47 46 45 45 44 44 44 43 43 42 41 40 39 38 38 37 37 37 36 35 35 35 33 31 30 32 33 34 33 33 34 34 34 35 35 35 34 34 36 36 36 36 35 34 34 32 30 30 32 34 32 28 26 26 25 24 24 26 27 29 30 30
53 52 50 49 48 47 47 46 45 45 45 44 44 45 45 44 45 45 44 45 45 45 46 46 46 47 48 47 46 45 44 44 44 44 43 42 42 41 41 40 40 39 39 38 38 37 37 36 34 32 33 35 36 35 35 35 36 36 36 36 37 37 36 36 37 38 38 38 36 35 36 34 33 33 33 35 34 29 26 25 25 25 25 25 27 29 30 31
55 54 53 52 50 50 49 48 48 47 46 46 46 46 46 46 46 46 46 47 46 46 47 47 48 47 47 47 46 45 45 44 44 44 43 43 43 43 42 42 41 40 40 40 40 39 39 37 35 35 36 37 37 37 37 37 37 37 37 38 38 38 38 39 38 39 40 40 38 37 37 35 33 33 32 32 32 29 26 26 26 27 27 27 29 30 31 32
57 56 56 55 54 53 51 51 50 49 48 48 47 47 48 48 48 48 48 49 48 48 48 49 49 48 48 48 48 47 46 45 45 45 45 45 45 45 44 43 42 42 42 42 41 41 40 39 37 37 38 38 38 38 38 39 39 39 39 39 40 39 40 40 40 41 42 41 40 39 39 36 31 30 27 27 28 25 25 26 27 28 29 30 31 32 33 34
59 58 58 57 56 55 54 53 52 50 50 49 49 48 49 49 49 49 50 51 52 50 50 50 50 50 49 49 49 49 49 48 47 47 47 47 46 46 45 44 44 44 44 43 43 42 41 40 40 39 40 40 39 39 40 40 40 40 41 41 42 41 41 42 42 43 42 42 40 40 42 37 30 28 25 24 25 24 25 27 27 29 31 33 34 34 34 35
60 60 60 59 59 57 57 56 54 53 52 51 51 51 50 50 50 51 52 53 54 52 51 52 52 52 50 51 51 50 51 50 49 49 48 47 47 47 46 46 47 46 45 44 44 44 43 42 42 41 41 40 40 40 41 42 42 42 43 43 44 43 44 44 43 43 43 42 40 40 44 39 31 28 24 23 25 27 28 29 29 31 33 34 35 35 35 35
61 61 61 61 61 60 59 58 57 57 56 54 54 53 53 52 52 52 53 55 57 54 53 53 53 53 52 53 52 52 53 52 50 50 49 49 49 49 49 49 48 47 45 44 46 46 45 43 43 42 42 42 42 43 42 42 43 44 45 44 45 45 45 44 43 44 44 43 41 40 44 42 34 28 25 25 28 29 29 29 29 32 34 34 35 35 35 34
62 62 62 63 63 62 60 59 59 59 58 57 57 55 54 54 53 54 53 56 59 56 53 54 54 55 54 54 54 54 55 54 51 51 51 50 51 50 50 50 48 47 46 46 47 48 46 45 44 44 44 45 45 44 42 42 45 46 46 44 44 43 43 44 44 44 45 44 44 42 42 43 37 29 27 29 30 29 28 27 29 31 33 33 34 35 35 35
64 64 64 64 64 63 61 60 60 59 60 60 59 58 58 56 56 56 55 58 61 58 56 55 56 56 56 56 55 56 57 56 54 53 51 51 51 51 50 50 49 48 47 48 49 48 48 47 46 46 47 47 46 45 44 45 46 45 43 42 41 41 42 43 44 45 45 44 45 42 40 42 38 32 32 33 30 28 26 27 29 31 32 33 34 35 35 35
63 65 65 65 65 64 63 62 60 60 61 61 61 61 61 60 60 58 58 61 62 60 59 58 57 57 58 58 57 57 57 56 55 54 52 52 51 51 51 49 49 49 49 49 49 49 50 50 49 49 49 48 46 46 46 45 44 42 41 41 40 41 41 42 44 44 45 46 44 41 39 42 41 35 34 35 31 30 28 28 31 32 34 35 35 35 34 34
58 61 64 66 66 64 63 63 61 61 61 61 61 62 62 63 62 62 64 64 62 62 62 61 59 58 58 58 58 58 57 57 56 55 54 53 52 51 51 49 49 50 50 49 49 50 51 51 51 51 49 48 47 47 46 43 42 41 41 42 42 42 42 43 44 44 45 46 43 41 41 44 45 38 35 37 34 31 31 31 33 35 37 38 37 36 35 34
53 56 60 62 62 64 64 63 63 62 62 62 61 62 63 63 62 64 66 64 62 64 65 64 62 60 60 59 59 58 57 57 56 56 56 55 54 53 52 52 51 51 51 52 51 51 52 52 53 53 52 51 49 47 45 43 43 43 43 43 43 44 44 45 45 45 47 47 43 43 43 46 49 43 39 41 38 34 34 34 35 38 40 40 39 37 35 34
50 52 55 57 58 61 62 63 65 65 64 63 61 62 64 64 65 65 63 61 62 66 68 67 66 64 63 62 61 60 59 58 58 58 58 57 56 55 54 54 52 52 54 54 54 54 54 55 55 55 55 53 49 46 44 44 44 43 43 43 43 45 46 48 48 48 49 48 46 47 47 49 51 46 42 42 41 39 38 36 38 40 42 42 41 38 34 32
50 49 51 54 55 56 57 61 66 68 66 64 62 64 66 68 70 66 61 60 63 64 64 65 65 65 65 64 63 62 61 61 60 59 59 59 59 57 56 56 55 55 55 54 54 54 54 54 53 53 51 49 47 45 45 45 44 45 45 45 45 47 49 50 50 50 51 51 50 50 51 53 52 47 44 43 42 42 40 39 42 43 42 42 41 37 33 30
48 49 50 50 52 54 53 55 61 66 69 68 66 66 69 72 70 65 63 63 63 63 63 63 63 63 63 62 61 60 60 59 59 59 59 59 59 59 57 56 55 54 53 53 53 53 54 53 51 49 49 48 48 47 47 47 47 49 49 49 50 50 50 50 51 52 54 54 53 54 55 55 52 49 47 46 44 42 40 41 44 44 42 41 38 34 31 28
46 47 49 50 51 52 52 53 55 60 66 70 72 73 75 73 66 62 63 63 62 63 64 65 65 64 63 61 60 59 58 58 58 58 59 58 58 57 56 55 54 54 53 52 53 53 53 54 51 50 50 50 50 50 50 50 51 52 52 54 54 51 48 50 53 55 56 57 57 57 57 55 52 51 50 49 46 43 42 42 43 42 40 38 35 31 29 27
47 46 49 52 51 51 51 52 52 55 59 64 72 77 77 73 67 64 64 61 61 62 62 64 65 64 64 63 61 60 59 60 60 60 60 60 59 58 57 56 56 55 54 54 55 55 55 55 54 53 53 53 53 53 54 54 54 55 56 56 53 49 49 52 55 55 57 58 58 57 57 55 53 52 50 48 46 44 44 43 41 40 37 33 31 29 27 26
49 52 53 50 48 50 52 51 51 55 58 60 67 72 70 68 66 66 64 63 63 64 64 66 67 65 64 64 62 60 59 59 60 60 60 60 60 58 58 58 58 57 57 56 56 56 56 57 57 56 56 55 54 54 54 54 55 55 55 52 49 49 52 53 54 55 56 57 58 57 57 56 55 52 49 47 46 44 45 43 38 35 32 30 29 27 26 25
54 61 61 53 47 49 53 53 52 54 56 58 62 63 61 61 61 62 64 65 66 67 68 68 68 67 67 66 64 63 63 62 61 60 58 58 58 56 55 56 55 55 55 55 56 56 56 57 57 56 55 55 55 54 55 55 55 54 52 51 50 51 52 52 52 53 54 56 57 57 56 54 52 51 49 47 45 43 41 39 34 30 28 27 26 25 25 24
58 64 64 58 53 52 53 52 49 50 54 56 57 55 54 53 54 59 64 66 68 71 71 70 69 69 68 68 67 67 67 66 65 64 62 61 59 55 54 54 52 51 50 50 52 54 54 54 55 56 55 55 56 57 57 56 54 53 51 52 52 53 53 52 52 52 53 55 56 55 54 51 49 48 48 46 43 38 35 32 29 27 26 25 24 24 24 24
59 63 60 57 57 56 55 55 52 53 58 57 54 52 51 50 50 54 57 61 66 68 69 69 70 72 71 69 69 70 70 69 68 67 65 63 61 58 56 55 53 50 49 49 49 50 53 55 56 57 57 57 58 57 57 55 53 53 54 55 54 54 54 54 54 53 53 53 54 54 53 49 47 48 46 43 37 31 29 28 26 25 25 24 24 24 24 25
58 62 59 56 57 57 56 59 60 60 62 61 56 53 52 52 51 52 52 55 60 62 63 66 69 71 71 71 70 70 70 70 69 68 66 64 61 58 56 55 54 52 52 53 52 52 54 55 55 56 57 57 57 56 56 55 56 56 56 57 57 55 54 54 55 53 52 52 51 53 53 47 45 47 43 38 32 25 24 24 23 23 24 25 25 25 25 26
61 62 61 58 59 59 57 58 60 61 63 61 56 54 54 53 51 51 51 52 54 56 58 61 65 67 68 69 69 68 67 67 67 66 65 63 60 57 56 55 56 56 56 56 55 55 55 56 57 58 58 58 58 59 59 58 58 58 59 59 58 56 54 53 53 51 50 51 50 52 52 45 43 45 39 33 29 25 23 22 21 22 24 26 27 26 27 28
67 63 62 62 62 62 61 59 58 60 62 60 56 56 55 53 52 51 51 52 53 54 55 56 58 61 62 64 66 67 67 68 68 67 65 64 62 60 59 60 61 61 60 59 58 57 57 58 59 60 60 60 60 60 61 61 62 62 62 59 55 54 51 50 50 49 50 52 50 51 52 46 44 43 36 31 30 27 25 24 23 24 26 28 29 28 29 30
73 67 64 65 66 66 67 65 62 62 63 61 61 61 57 54 55 56 54 55 56 56 56 55 55 55 55 57 59 62 64 66 68 69 68 66 65 64 63 63 62 62 61 59 57 56 56 56 56 57 58 59 60 61 61 62 63 61 59 56 55 53 50 49 49 47 50 53 51 51 52 47 44 41 35 33 32 29 28 28 27 28 29 30 31 31 31 32
77 74 69 67 69 71 71 69 65 64 65 64 64 64 63 59 58 59 58 58 59 59 58 57 55 54 54 54 55 56 58 61 63 65 67 66 65 64 62 60 59 59 57 55 53 53 54 54 52 54 56 57 57 56 55 55 56 56 56 56 55 53 50 50 49 48 52 54 52 53 52 46 42 39 36 35 34 32 32 32 32 32 32 33 33 32 32 33
76 78 75 70 69 73 73 71 69 69 69 68 65 64 65 64 62 61 60 57 56 58 57 57 56 56 56 55 55 56 57 58 61 62 63 64 63 63 61 58 56 55 54 53 52 51 52 52 51 53 55 54 51 50 50 50 52 54 55 55 54 52 51 50 51 53 55 55 54 53 50 45 41 37 36 36 37 36 36 36 36 36 36 37 35 33 33 33
75 77 78 74 71 72 73 73 73 73 71 71 69 66 63 62 61 62 60 56 54 54 55 56 57 58 60 58 56 57 57 59 61 62 62 61 61 60 59 56 54 53 53 52 50 50 50 50 50 50 50 48 47 49 51 51 53 53 53 53 52 51 51 52 54 55 53 53 54 52 47 45 41 37 37 39 39 39 38 38 38 38 39 40 39 37 36 36
77 77 77 77 75 73 72 73 72 73 73 70 69 69 67 64 62 62 60 58 58 58 57 58 56 56 58 58 57 57 57 58 60 62 61 61 60 59 57 56 55 54 52 49 47 47 49 48 47 48 47 45 45 48 50 51 52 52 52 51 51 51 52 54 55 54 52 54 55 51 48 47 43 40 41 42 41 41 41 42 42 42 43 44 44 43 42 42
79 78 77 78 78 75 72 72 72 73 74 70 65 65 69 71 67 63 61 63 64 63 62 61 56 52 53 55 57 58 58 58 59 61 61 60 59 58 57 56 56 54 51 47 44 45 46 43 41 42 43 42 43 46 48 49 50 51 51 50 50 51 52 54 54 52 53 56 54 50 50 48 45 44 44 43 42 43 44 45 46 46 46 48 49 49 48 47
81 80 79 79 80 77 74 74 75 76 75 72 65 61 64 71 72 68 67 69 69 68 66 63 56 52 53 54 56 58 57 55 56 56 56 55 55 56 56 56 55 54 52 50 49 49 49 47 44 43 42 41 41 43 46 47 49 50 51 50 50 52 54 55 54 52 53 55 51 49 51 49 45 45 44 44 45 46 46 48 48 49 49 51 52 52 51 51
83 81 80 79 80 80 78 77 78 79 78 75 68 61 59 63 66 67 68 71 71 70 69 65 60 55 55 57 58 56 53 53 54 53 53 52 50 49 49 50 50 50 50 50 50 50 49 48 46 45 45 43 41 42 44 44 46 50 51 49 52 55 56 55 54 52 53 53 50 51 52 49 46 45 46 48 49 48 47 47 48 49 50 51 52 52 53 53
84 82 81 81 81 81 82 81 81 83 84 81 75 68 62 59 57 58 60 65 69 72 71 66 62 61 60 60 58 52 51 52 52 50 50 50 49 47 46 46 47 48 48 47 47 48 47 45 43 42 43 42 40 42 43 42 46 51 50 48 50 53 53 52 53 52 52 52 53 54 54 49 47 49 49 49 49 49 49 48 48 50 51 53 54 54 55 56
Wind_Direction
217 218 218 219 218 218 217 216 215 215 214 214 213 213 213 214 215 214 213 211 207 203 199 195 192 192 192 192 191 190 189 186 184 183 182 182 183 185 186 189 190 189 188 188 190 188 189 192 196 201 207 214 222 233 242 250 255 261 266 268 275 282 284 283 285 289 290 291 290 291 295 297 300 310 317 317 312 304 296 294 297 301 303 297 290 286 284 285
217 219 220 221 221 221 220 219 218 217 215 215 214 214 214 214 216 216 214 212 208 204 200 197 195 195 195 195 194 193 192 190 188 188 187 188 190 192 194 197 198 197 197 198 199 200 201 206 212 217 224 233 240 249 256 261 264 268 269 270 275 279 281 283 286 290 289 286 284 285 289 291 296 305 311 314 310 302 295 294 300 304 301 293 289 287 284 283
218 219 221 222 223 223 222 222 221 219 218 216 215 215 214 215 216 216 215 213 209 205 201 199 198 198 198 198 196 196 195 193 193 193 192 192 195 197 199 202 204 203 204 206 207 207 209 213 220 225 231 243 249 257 265 269 271 273 274 275 276 277 278 281 284 286 285 284 283 283 285 289 296 301 306 311 310 303 298 297 301 301 296 293 290 287 284 282
218 219 221 222 223 223 224 223 222 221 219 218 217 216 215 216 217 217 217 214 211 206 203 201 200 201 201 201 199 199 199 197 197 197 197 197 199 201 203 205 207 209 211 213 214 214 215 215 223 228 232 246 255 261 271 275 278 280 280 279 278 277 277 278 280 280 281 283 283 282 283 288 294 299 305 308 307 305 301 298 298 298 295 293 292 288 286 283
219 220 221 222 222 223 223 223 222 221 220 219 218 217 217 217 218 218 218 216 213 208 204 202 202 203 203 203 201 201 202 201 201 202 202 202 203 204 206 208 210 213 215 218 220 221 221 221 226 231 234 248 259 264 272 279 283 284 282 279 279 279 278 277 277 277 277 280 282 283 284 287 292 299 304 305 305 304 301 298 295 295 294 293 292 290 287 284
221 222 222 222 222 222 222 221 221 220 220 220 219 219 219 219 220 220 219 217 214 209 206 204 204 205 205 205 204 204 206 205 204 206 207 207 208 209 210 212 214 216 218 222 225 226 228 227 231 236 241 251 261 268 274 280 284 283 280 279 280 281 281 280 280 278 277 279 281 283 285 288 292 298 303 303 303 302 300 298 296 293 293 293 293 290 287 284
222 223 223 223 222 222 221 221 221 221 221 221 221 221 221 221 222 223 222 219 215 211 207 206 206 207 207 207 206 207 208 208 208 209 210 212 213 214 215 217 219 221 223 226 229 231 234 235 237 242 247 254 261 268 274 279 281 281 279 281 282 281 281 283 283 282 281 281 283 284 287 290 294 299 302 301 299 300 301 299 296 293 292 291 289 286 283 281
222 223 223 223 223 223 222 222 222 223 223 223 223 223 222 222 224 224 224 221 218 213 210 208 207 208 209 209 208 209 210 211 212 212 213 215 217 218 220 222 224 226 229 231 234 236 240 241 243 246 249 254 261 267 272 277 280 281 282 285 285 282 282 283 283 284 285 285 286 287 288 292 297 300 301 298 298 300 301 299 296 294 292 289 285 282 279 277
223 223 223 223 224 224 224 224 224 224 225 225 225 225 224 224 224 225 225 223 220 216 212 210 209 210 210 211 211 211 212 213 214 215 215 217 220 222 224 226 228 230 233 235 238 241 244 246 248 250 251 254 262 268 271 275 279 282 285 288 287 284 283 283 284 284 286 288 289 289 292 295 299 301 299 296 297 299 299 297 295 294 292 288 285 281 278 275
223 223 223 223 224 225 225 225 225 226 226 226 226 226 226 226 226 226 226 224 221 217 214 212 211 212 212 212 213 214 214 215 216 217 219 220 222 224 226 229 231 233 236 239 241 243 247 250 252 254 255 257 261 267 271 274 278 282 286 288 289 288 283 283 286 288 289 290 291 292 295 298 299 299 297 296 298 298 297 296 295 294 292 289 286 283 281 278
224 224 224 224 224 224 225 225 226 226 227 227 227 227 227 227 227 227 227 225 222 219 215 213 213 213 214 214 215 216 216 217 219 219 222 223 225 227 229 231 233 236 239 241 244 246 250 253 255 257 258 260 262 266 271 274 277 281 285 287 289 287 285 285 288 291 292 293 293 294 296 298 298 296 295 295 297 297 296 296 294 293 291 289 287 285 284 281
225 225 225 225 224 224 225 225 226 227 228 228 228 228 228 227 227 227 227 226 223 219 216 215 214 215 216 216 217 218 218 219 221 222 224 226 228 230 232 234 236 238 241 243 246 249 252 254 256 259 261 263 265 267 269 273 277 282 285 286 286 286 287 289 291 293 295 295 295 294 295 297 296 295 294 294 295 295 295 294 293 291 289 288 287 285 282 280
224 225 225 225 225 225 226 226 227 227 228 228 228 229 228 228 228 227 227 226 223 220 217 215 215 216 217 218 219 220 220 221 223 224 226 228 230 232 234 236 238 241 243 245 248 251 253 256 258 260 262 263 266 268 270 274 278 281 283 284 284 286 287 290 293 296 296 296 295 293 294 298 296 294 294 293 294 293 292 292 292 291 289 287 284 281 279 279
223 224 225 225 225 226 226 226 227 227 227 228 228 229 229 228 227 227 227 225 223 220 218 216 216 217 218 219 220 221 222 223 225 226 227 230 232 234 236 238 240 242 245 248 250 252 255 258 260 263 264 265 266 268 271 274 277 280 282 282 282 285 288 293 296 296 295 294 294 293 294 297 296 294 293 293 293 291 290 291 291 290 287 284 281 278 277 277
223 223 223 224 224 225 226 226 226 226 227 228 228 228 228 227 227 226 226 225 223 220 218 217 217 218 219 220 221 223 224 225 227 228 229 231 234 236 238 240 241 243 246 249 252 254 256 258 262 264 266 267 268 270 272 275 278 280 280 280 282 287 291 295 296 296 295 295 294 293 294 297 295 292 292 292 291 288 289 290 289 287 285 282 279 277 275 275
225 224 223 223 223 223 224 225 225 226 226 227 227 227 227 226 226 225 224 223 222 220 219 218 218 219 219 221 223 224 226 227 229 231 232 233 235 237 239 241 243 245 247 250 253 255 258 260 262 264 267 269 271 273 274 275 277 278 278 281 286 290 292 294 294 295 295 295 294 293 294 296 293 290 290 290 288 288 289 289 288 286 284 281 279 277 275 275
228 226 225 223 223 223 223 224 224 225 226 226 227 226 226 226 225 224 223 222 221 220 219 219 219 220 221 222 224 226 228 229 231 232 234 235 237 239 241 242 244 246 248 251 254 256 259 261 263 265 268 271 273 274 274 274 275 275 278 284 288 290 292 293 293 294 294 294 293 293 294 294 290 288 289 287 285 287 289 288 287 286 284 282 279 278 277 277
229 229 228 226 225 224 223 223 224 224 225 225 226 226 226 225 224 224 223 222 221 220 220 219 220 221 222 223 225 227 229 231 232 234 236 237 239 240 242 243 245 247 250 252 254 256 259 262 264 266 270 273 274 273 273 273 274 276 281 284 287 289 291 292 293 294 293 292 292 291 291 290 288 288 288 285 284 287 289 287 285 284 284 284 283 281 281 281
229 229 229 228 227 227 226 225 225 225 224 225 226 226 226 226 225 224 223 222 222 221 221 221 222 223 223 224 226 228 230 232 234 236 238 239 240 242 243 244 246 248 251 253 255 257 260 263 265 268 272 274 272 271 272 274 276 279 282 284 286 288 290 292 293 292 292 290 290 290 289 288 287 286 285 284 286 289 289 286 285 285 285 286 286 286 286 287
229 229 229 229 228 228 228 227 227 226 226 226 226 227 227 227 227 226 225 224 224 224 224 223 224 224 224 225 227 229 231 233 235 237 239 241 242 243 245 246 248 249 251 254 256 259 262 264 267 270 272 271 271 272 273 276 278 280 282 284 286 287 290 292 291 292 291 290 289 288 287 287 285 281 280 282 285 288 287 284 284 284 286 287 288 288 287 287
230 230 229 229 229 229 229 229 228 228 228 228 227 228 228 229 229 228 227 227 226 226 226 225 225 225 226 227 228 230 232 234 236 238 240 242 244 245 246 247 248 250 252 254 257 260 262 265 267 269 270 270 272 274 275 276 278 280 282 284 286 288 290 291 291 291 290 289 289 288 286 286 284 279 278 281 284 286 284 282 281 281 283 286 287 288 288 287
232 231 230 230 229 230 230 229 229 229 229 229 229 230 230 230 230 230 230 229 228 228 228 227 227 227 228 229 230 232 234 235 237 239 241 242 244 245 246 247 249 251 254 255 258 260 262 264 266 268 269 271 273 274 275 275 277 280 282 284 286 288 289 290 290 290 289 289 288 288 286 284 282 281 281 282 283 284 282 281 280 280 282 285 286 287 288 287
232 232 232 231 231 230 230 230 230 229 230 230 231 232 232 232 232 232 232 231 230 230 230 230 229 229 230 232 232 233 234 236 237 239 241 242 243 245 246 248 250 252 254 256 258 260 262 265 266 267 269 270 272 273 274 276 278 280 282 284 285 287 288 288 288 287 287 287 287 287 284 281 280 282 284 285 284 283 281 279 279 280 283 285 285 286 287 287
233 233 233 233 233 232 232 232 231 231 232 232 233 233 234 234 234 234 234 234 232 231 231 232 231 231 232 233 234 234 235 236 238 239 240 243 245 247 248 250 252 253 255 257 259 261 263 265 265 266 268 269 271 273 275 277 278 280 282 284 285 286 286 285 285 284 285 285 286 285 282 279 278 280 282 284 285 284 281 280 281 284 285 284 284 285 287 287
234 234 234 234 234 233 234 233 233 233 233 233 234 234 235 235 236 236 237 237 234 232 233 234 234 233 234 236 236 237 238 238 239 241 243 245 247 248 250 251 252 254 256 258 260 261 262 264 265 266 268 270 272 273 275 276 278 280 282 283 284 284 283 283 283 282 282 282 282 281 279 277 274 275 279 281 282 281 280 281 285 285 283 283 284 285 285 286
235 235 235 235 234 234 234 234 234 234 234 234 235 235 235 236 237 238 239 240 237 233 234 235 236 236 236 238 238 239 241 240 241 243 244 246 247 249 250 252 254 256 258 259 260 261 263 264 266 267 268 269 270 272 274 276 278 279 281 283 282 282 282 281 281 280 280 280 278 274 273 275 274 273 278 281 279 278 280 285 287 285 284 284 285 285 284 284
236 236 236 236 236 235 235 234 234 235 235 235 236 236 237 237 238 239 240 243 239 233 234 236 237 237 237 239 240 241 242 241 243 245 245 247 248 249 251 253 255 256 258 259 260 262 263 264 265 266 267 268 270 273 275 276 277 279 281 281 280 280 280 279 279 278 278 277 276 271 272 276 275 272 276 277 278 282 287 289 288 286 288 288 288 287 285 284
237 237 237 236 236 236 235 234 234 235 236 236 236 237 237 237 239 239 240 242 239 234 235 236 236 238 238 239 240 242 243 242 243 245 246 248 249 250 252 253 255 257 257 259 261 263 263 263 264 265 267 269 271 274 274 275 276 277 277 277 277 278 277 277 277 276 276 275 273 272 276 280 277 273 277 277 280 288 291 289 288 289 291 293 293 291 288 286
237 237 237 236 236 235 235 235 235 236 237 237 238 238 238 238 238 239 240 241 239 237 237 236 237 238 240 241 242 243 244 245 245 247 248 249 251 252 253 254 256 257 257 259 261 262 263 264 265 265 267 269 271 272 273 274 274 274 274 275 276 275 274 274 273 273 274 273 273 275 280 283 279 274 277 280 286 293 291 288 289 292 295 296 296 294 290 286
236 236 237 236 236 236 236 236 235 237 238 239 239 239 239 239 239 239 240 239 239 240 239 238 237 238 240 242 244 245 246 247 248 249 250 251 252 253 254 255 256 257 258 259 260 261 263 264 265 266 267 269 269 270 270 271 271 271 272 273 274 273 273 272 271 271 271 271 274 277 281 283 279 274 277 282 288 293 291 289 291 295 297 297 297 295 291 287
236 237 237 238 238 237 237 236 236 237 238 239 240 240 240 240 240 240 241 240 241 242 242 241 240 239 240 242 245 246 247 248 249 250 252 252 253 253 254 255 256 257 258 259 260 262 263 264 266 267 267 267 266 266 266 267 268 270 271 273 273 273 272 271 270 270 270 272 276 278 279 278 275 275 279 284 290 293 292 292 295 299 299 297 296 294 290 286
234 236 238 238 238 238 238 237 237 237 237 237 239 240 240 240 239 240 241 242 242 242 242 243 243 241 241 242 243 245 247 248 249 251 252 253 254 254 254 255 257 258 259 260 261 262 262 263 264 265 265 265 265 265 266 267 269 270 271 271 270 270 269 269 269 269 270 274 276 277 276 274 273 275 280 284 290 293 292 295 298 300 298 294 292 290 287 284
231 234 236 236 236 237 238 238 238 238 237 236 236 238 239 239 239 239 241 241 242 243 244 245 245 244 244 243 243 244 246 248 249 251 252 253 255 255 256 256 257 258 260 261 261 261 261 261 261 262 263 265 266 267 267 268 268 267 267 266 266 267 268 269 270 271 272 273 274 274 274 273 274 277 279 282 286 290 293 297 298 297 293 290 288 286 284 281
232 233 234 233 233 234 235 237 239 240 239 237 235 236 237 239 240 241 242 242 243 246 246 247 247 246 246 245 245 245 247 248 249 251 252 253 254 255 256 257 258 259 259 259 259 260 260 260 260 261 263 264 265 266 266 267 266 266 266 266 266 266 268 270 272 272 272 272 272 271 271 273 277 279 280 280 283 289 294 296 295 292 288 286 284 283 281 278
236 237 236 234 232 230 232 236 239 241 241 239 237 236 236 237 239 241 242 243 244 245 247 248 248 248 248 247 246 247 247 249 250 251 252 252 253 254 255 256 256 257 257 258 259 259 260 261 261 262 263 263 264 264 264 264 264 265 266 265 266 267 268 269 270 271 272 272 272 271 272 275 278 279 279 280 285 291 295 293 289 286 284 283 281 279 278 277
238 239 237 236 234 230 232 235 238 240 242 241 240 239 238 239 240 241 243 244 245 245 247 248 249 249 249 249 249 249 249 250 251 251 252 252 252 252 252 253 254 255 256 257 258 259 260 261 261 262 262 262 262 262 262 262 263 264 264 264 266 267 266 266 267 269 270 271 272 274 276 278 279 278 279 282 287 292 293 289 284 281 281 280 276 274 274 273
234 237 235 234 234 232 231 233 234 236 239 241 243 244 243 243 242 242 243 243 244 245 245 247 248 249 250 250 250 251 251 251 252 252 252 252 252 251 251 252 253 255 256 257 257 258 258 259 259 259 260 260 260 260 261 261 262 262 263 264 264 264 265 265 266 268 269 271 273 275 277 278 279 279 281 285 288 292 291 287 282 279 277 273 269 270 270 268
229 235 236 232 231 230 228 230 232 232 235 238 241 244 245 244 242 242 242 242 243 244 245 246 247 248 250 251 251 252 253 254 254 254 253 253 252 251 252 253 254 255 255 255 255 254 254 255 255 256 256 257 257 257 258 259 260 261 263 264 265 265 266 265 266 268 269 271 273 275 278 279 280 281 283 286 289 292 290 284 281 276 268 264 265 266 265 262
229 234 237 233 230 229 226 231 236 237 238 240 240 241 243 243 241 240 241 242 243 244 245 246 247 249 250 251 252 254 255 255 255 255 255 255 254 253 253 254 253 253 252 252 252 251 251 251 252 253 253 254 255 256 257 259 261 262 264 265 265 265 266 265 266 267 268 271 274 278 281 281 281 281 282 284 288 290 287 281 277 269 261 259 261 262 261 257
232 234 235 232 232 232 230 234 239 240 241 242 240 239 240 240 238 239 239 240 241 243 244 245 246 248 250 251 252 253 254 255 255 255 255 255 255 254 253 252 250 249 249 250 250 249 249 249 250 252 253 254 256 258 260 261 261 262 262 262 263 263 263 264 265 266 268 272 276 281 282 279 279 280 278 280 285 287 283 278 272 262 256 255 257 259 258 255
232 234 233 230 230 233 235 238 239 239 241 241 239 238 238 237 236 237 238 239 240 241 241 242 243 246 247 249 250 251 252 253 254 254 254 254 254 253 252 251 250 248 249 250 250 251 251 252 252 254 255 257 259 259 259 259 258 258 258 259 260 261 261 263 266 269 272 275 278 281 279 277 279 279 279 283 286 282 276 272 265 257 252 253 255 257 257 254
229 231 232 229 228 229 233 238 240 241 242 243 242 241 240 238 237 237 238 238 239 239 238 239 240 242 244 245 247 248 249 251 252 252 253 253 253 252 251 251 251 250 251 251 251 252 254 254 254 254 255 256 257 258 257 257 258 258 258 258 258 260 263 266 270 273 274 274 275 275 276 278 279 278 280 285 283 273 268 266 260 255 251 252 253 254 256 255
229 229 229 230 229 228 230 234 236 239 242 244 243 243 243 240 239 238 238 239 239 238 237 237 238 240 241 243 245 246 248 250 251 251 252 253 252 251 252 251 251 252 252 252 251 251 251 252 253 254 254 255 257 258 259 259 259 258 259 260 261 263 266 267 269 269 269 270 271 270 273 277 278 278 280 279 274 269 267 262 255 252 252 253 255 256 257 257
230 230 229 231 231 230 230 233 233 235 240 242 244 243 240 238 238 237 236 238 239 237 236 236 237 239 240 241 243 245 246 248 250 250 251 252 252 253 254 254 253 253 253 253 253 252 251 251 252 253 254 254 255 256 258 259 260 261 263 264 265 265 264 263 265 264 265 268 267 265 271 277 279 279 279 273 270 269 266 262 257 254 254 256 258 259 260 261
230 230 229 230 232 232 232 233 233 234 236 239 243 243 238 235 237 237 238 240 239 237 237 237 238 240 240 241 242 244 245 247 248 249 249 250 251 252 253 254 254 254 254 253 251 251 251 251 250 250 251 252 254 257 261 263 264 264 263 262 262 262 260 261 261 260 263 265 263 264 272 277 277 276 275 272 271 269 266 265 263 260 259 259 259 260 262 264
231 231 229 228 230 232 233 233 234 235 235 236 241 241 236 233 233 234 236 239 238 237 237 237 238 239 240 240 242 244 246 247 248 248 247 247 248 249 251 252 252 252 253 253 253 253 254 254 253 253 254 255 258 261 262 262 261 260 259 259 258 258 258 258 258 260 263 265 265 268 271 271 270 272 272 271 269 267 267 267 266 266 265 265 264 266 267 268
231 231 230 228 229 231 232 232 233 235 236 237 241 241 237 234 234 234 234 235 236 237 239 237 236 238 240 241 243 245 247 248 248 249 248 248 248 248 249 250 249 250 252 254 256 256 254 255 257 258 259 259 259 259 259 258 258 257 257 257 256 256 256 257 260 263 264 264 266 269 268 265 265 267 269 269 269 269 271 271 271 271 271 271 271 271 272 272
231 231 231 230 229 229 230 232 234 236 237 238 241 243 242 241 239 237 236 237 239 240 242 240 238 239 240 242 244 244 242 241 244 248 250 249 248 248 248 248 248 250 253 255 256 257 256 256 257 258 258 258 257 256 256 256 255 255 254 254 254 255 256 258 261 263 263 263 265 267 266 265 265 265 266 268 269 271 272 273 274 274 275 276 276 274 274 275
231 232 231 230 230 229 228 229 231 234 237 237 238 240 243 245 243 241 240 242 243 242 243 243 242 242 242 243 242 239 234 234 239 246 249 249 248 248 248 248 249 251 253 253 251 251 252 254 254 254 255 255 253 253 253 252 252 252 252 252 253 255 257 258 259 260 260 261 263 265 267 267 267 268 270 270 270 270 271 271 272 273 273 274 274 274 275 277
231 232 231 231 231 230 228 227 227 229 232 233 231 230 236 242 245 245 243 243 243 243 244 244 244 244 244 243 239 235 233 234 237 241 244 246 247 248 249 250 252 254 255 254 251 248 249 252 253 255 256 254 252 251 249 248 248 248 249 251 253 254 253 253 255 257 259 260 263 266 267 266 266 270 273 272 270 268 267 267 268 270 271 271 272 273 274 276
231 231 231 231 231 229 228 226 226 227 227 227 226 226 227 232 239 243 244 243 242 243 244 244 244 244 244 242 237 234 237 239 238 237 239 241 243 245 247 248 250 251 252 252 251 250 251 252 252 252 254 254 252 249 247 247 247 245 247 253 254 252 251 254 256 258 260 262 264 264 264 264 266 268 269 268 269 269 268 268 268 268 270 270 271 272 273 274
231 231 230 230 230 229 228 227 226 227 227 226 227 230 229 227 230 236 240 240 239 240 240 241 241 240 240 239 238 238 241 241 237 235 236 238 238 236 236 238 238 239 241 242 243 244 245 244 243 243 246 250 249 248 248 248 247 248 252 255 255 254 255 258 258 259 261 262 263 262 262 264 265 265 265 266 268 269 269 269 268 267 267 268 269 271 273 274
Height
5829 5831 5833 5835 5836 5838 5839 5841 5842 5844 5846 5848 5849 5851 5852 5854 5855 5856 5858 5859 5861 5862 5864 5865 5867 5868 5869 5871 5872 5873 5874 5875 5877 5878 5879 5880 5881 5882 5882 5883 5884 5885 5885 5886 5886 5887 5887 5887 5888 5888 5889 5889 5890 5890 5890 5890 5891 5891 5891 5891 5891 5891 5891 5891 5891 5891 5891 5891 5891 5891 5890 5889 5889 5889 5889 5889 5888 5887 5887 5886 5886 5886 5885 5885 5884 5884 5883 5883
5826 5828 5831 5832 5834 5836 5837 5839 5840 5842 5844 5845 5847 5849 5850 5852 5853 5855 5856 5858 5859 5861 5862 5864 5865 5866 5868 5869 5871 5872 5873 5874 5876 5877 5878 5879 5880 5881 5882 5882 5883 5884 5884 5885 5885 5886 5887 5887 5887 5888 5888 5889 5889 5889 5889 5890 5890 5890 5890 5891 5891 5890 5890 5890 5890 5890 5890 5889 5890 5890 5889 5888 5888 5888 5888 5888 5887 5886 5885 5885 5885 5885 5884 5884 5883 5883 5882 5882
5823 5825 5828 5830 5832 5833 5835 5837 5838 5840 5841 5843 5845 5846 5848 5850 5851 5853 5854 5856 5857 5859 5861 5862 5864 5865 5866 5868 5869 5871 5872 5873 5874 5875 5877 5878 5879 5880 5881 5881 5882 5883 5884 5884 5885 5885 5886 5886 5887 5887 5888 5888 5888 5888 5888 5888 5889 5889 5889 5889 5890 5889 5889 5889 5889 5889 5888 5888 5888 5889 5888 5887 5887 5887 5887 5887 5886 5885 5884 5883 5883 5883 5883 5882 5882 5882 5881 5881
5819 5822 5824 5827 5829 5831 5832 5834 5836 5837 5839 5841 5842 5844 5846 5847 5849 5851 5852 5854 5855 5857 5859 5860 5862 5863 5865 5866 5868 5869 5871 5872 5873 5874 5875 5876 5877 5878 5879 5880 5881 5882 5882 5883 5884 5884 5885 5886 5886 5886 5887 5886 5887 5887 5887 5887 5887 5888 5888 5888 5888 5888 5887 5888 5888 5888 5887 5887 5886 5887 5887 5886 5886 5885 5885 5885 5885 5884 5883 5882 5881 5881 5881 5880 5880 5880 5880 5879
5816 5818 5821 5823 5825 5828 5829 5831 5833 5835 5837 5839 5840 5842 5843 5845 5847 5848 5850 5852 5853 5855 5857 5858 5860 5861 5863 5865 5866 5868 5869 5870 5871 5872 5874 5875 5876 5877 5878 5879 5880 5880 5881 5882 5883 5883 5884 5885 5885 5885 5885 5885 5885 5886 5886 5886 5886 5886 5886 5886 5886 5886 5886 5886 5887 5887 5886 5886 5885 5885 5885 5885 5884 5884 5883 5883 5883 5883 5882 5880 5879 5879 5879 5879 5878 5878 5878 5877
5813 5815 5817 5819 5822 5824 5826 5828 5830 5832 5834 5836 5838 5840 5841 5843 5844 5846 5848 5849 5851 5853 5854 5856 5858 5859 5861 5862 5864 5866 5867 5868 5869 5871 5872 5873 5874 5875 5876 5877 5878 5879 5879 5880 5881 5882 5882 5883 5883 5884 5884 5884 5884 5884 5885 5885 5885 5885 5884 5885 5885 5884 5884 5884 5885 5885 5885 5884 5884 5884 5883 5883 5883 5883 5882 5881 5881 5881 5880 5880 5878 5877 5877 5877 5876 5876 5875 5875
5809 5811 5813 5816 5818 5820 5822 5825 5827 5829 5831 5833 5835 5837 5839 5840 5842 5844 5845 5847 5849 5850 5852 5853 5855 5857 5858 5860 5862 5863 5864 5866 5868 5869 5870 5871 5872 5873 5874 5875 5876 5877 5878 5879 5879 5880 5880 5881 5881 5882 5883 5883 5883 5883 5884 5884 5884 5883 5883 5883 5884 5883 5882 5882 5882 5882 5883 5882 5882 5882 5882 5882 5881 5881 5880 5879 5878 5879 5879 5878 5877 5876 5875 5875 5874 5874 5874 5873
5805 5807 5810 5812 5814 5817 5819 5821 5823 5825 5827 5829 5831 5833 5835 5837 5839 5841 5843 5845 5846 5848 5850 5851 5853 5854 5856 5858 5859 5861 5862 5864 5865 5867 5868 5869 5871 5872 5873 5873 5874 5875 5876 5877 5877 5878 5878 5879 5880 5881 5881 5881 5881 5882 5882 5882 5882 5882 5881 5882 5882 5882 5881 5880 5880 5881 5880 5880 5880 5880 5879 5880 5879 5879 5878 5876 5876 5876 5877 5876 5875 5874 5873 5873 5872 5872 5871 5871
5801 5803 5806 5808 5810 5813 5815 5817 5819 5822 5824 5826 5828 5830 5832 5834 5836 5838 5840 5842 5844 5846 5847 5849 5850 5852 5854 5855 5857 5858 5860 5862 5863 5864 5866 5867 5868 5870 5871 5871 5872 5873 5874 5875 5875 5876 5876 5877 5878 5879 5879 5880 5880 5880 5880 5881 5880 5880 5880 5880 5880 5880 5880 5879 5878 5879 5879 5878 5878 5877 5877 5878 5877 5876 5875 5874 5874 5874 5874 5874 5873 5872 5872 5871 5870 5869 5869 5868
5797 5800 5802 5804 5806 5808 5811 5813 5815 5817 5820 5822 5824 5826 5828 5831 5833 5835 5837 5839 5841 5843 5845 5846 5848 5850 5851 5853 5855 5856 5858 5859 5861 5862 5864 5865 5866 5867 5868 5869 5870 5871 5872 5873 5873 5874 5874 5875 5876 5876 5877 5878 5878 5878 5878 5878 5879 5879 5879 5878 5878 5878 5878 5877 5876 5877 5877 5876 5876 5875 5875 5875 5875 5874 5873 5871 5871 5871 5871 5871 5870 5870 5869 5868 5867 5866 5866 5866
5794 5796 5798 5800 5802 5805 5807 5809 5811 5813 5816 5818 5820 5822 5825 5827 5829 5831 5833 5835 5838 5840 5842 5843 5845 5847 5849 5850 5852 5853 5855 5857 5858 5860 5861 5862 5864 5865 5866 5867 5868 5869 5870 5870 5871 5872 5872 5873 5873 5874 5875 5875 5876 5876 5876 5876 5876 5877 5877 5876 5876 5876 5875 5875 5875 5875 5875 5874 5873 5872 5872 5873 5872 5872 5870 5869 5869 5868 5868 5868 5867 5867 5866 5865 5865 5864 5863 5863
5790 5792 5795 5797 5799 5801 5803 5805 5807 5810 5812 5814 5816 5819 5821 5823 5825 5828 5830 5832 5834 5836 5838 5840 5842 5844 5846 5848 5849 5851 5853 5854 5856 5857 5859 5860 5861 5862 5864 5865 5866 5866 5867 5868 5869 5869 5870 5870 5871 5872 5872 5873 5873 5874 5874 5874 5874 5874 5875 5874 5873 5873 5873 5873 5873 5872 5872 5872 5871 5869 5870 5870 5869 5869 5868 5867 5867 5866 5865 5865 5864 5864 5863 5863 5862 5862 5861 5860
5787 5789 5791 5793 5796 5797 5799 5802 5804 5806 5808 5810 5812 5814 5817 5819 5821 5824 5826 5828 5830 5832 5834 5836 5838 5841 5843 5845 5846 5848 5850 5851 5853 5854 5856 5857 5858 5860 5861 5862 5863 5864 5865 5866 5866 5867 5867 5868 5868 5869 5870 5870 5871 5871 5871 5872 5872 5872 5872 5871 5870 5870 5870 5870 5870 5870 5870 5869 5868 5866 5867 5868 5866 5865 5865 5865 5865 5864 5863 5862 5862 5861 5861 5860 5860 5859 5859 5858
5783 5785 5788 5790 5792 5794 5796 5798 5800 5802 5804 5806 5808 5811 5813 5815 5817 5820 5822 5824 5826 5828 5830 5833 5835 5837 5839 5841 5843 5845 5847 5849 5850 5851 5853 5854 5856 5857 5858 5859 5860 5861 5862 5863 5863 5864 5865 5865 5866 5866 5867 5868 5868 5868 5869 5869 5869 5869 5869 5868 5868 5867 5868 5868 5868 5868 5867 5866 5865 5863 5864 5865 5864 5862 5862 5862 5862 5861 5860 5860 5859 5859 5858 5858 5857 5857 5856 5856
5779 5782 5784 5786 5789 5791 5793 5794 5796 5798 5800 5802 5805 5807 5809 5811 5814 5816 5818 5820 5823 5825 5827 5829 5831 5833 5836 5838 5840 5842 5844 5845 5847 5848 5850 5851 5853 5854 5855 5856 5857 5858 5859 5859 5860 5861 5862 5862 5863 5863 5864 5865 5865 5866 5866 5866 5866 5866 5865 5865 5865 5865 5865 5865 5865 5864 5864 5863 5862 5860 5860 5862 5861 5859 5859 5859 5859 5859 5858 5858 5857 5856 5856 5855 5855 5854 5853 5853
5776 5778 5780 5782 5785 5787 5789 5791 5793 5795 5797 5799 5801 5803 5805 5807 5810 5812 5814 5816 5818 5821 5823 5825 5827 5830 5832 5834 5836 5839 5840 5842 5844 5845 5847 5848 5850 5851 5852 5853 5854 5855 5856 5856 5857 5858 5858 5859 5860 5861 5861 5862 5862 5863 5863 5863 5863 5862 5861 5861 5862 5862 5862 5862 5862 5861 5861 5859 5859 5857 5857 5859 5857 5855 5856 5856 5856 5856 5856 5855 5854 5853 5853 5852 5851 5851 5850 5850
5772 5775 5777 5779 5781 5783 5785 5787 5789 5791 5793 5796 5798 5800 5801 5803 5806 5808 5810 5812 5814 5817 5819 5821 5824 5826 5828 5831 5833 5835 5837 5838 5840 5842 5843 5844 5846 5848 5849 5850 5851 5852 5853 5853 5854 5855 5855 5856 5857 5858 5858 5859 5859 5859 5860 5860 5860 5859 5858 5859 5859 5859 5859 5859 5859 5858 5858 5856 5855 5855 5854 5855 5853 5852 5853 5853 5852 5853 5853 5852 5851 5851 5849 5848 5848 5847 5846 5846
5768 5770 5773 5775 5777 5779 5781 5783 5785 5787 5790 5792 5794 5796 5798 5800 5802 5804 5806 5808 5811 5813 5815 5818 5820 5822 5825 5828 5830 5832 5833 5835 5837 5838 5839 5841 5843 5844 5845 5846 5848 5849 5849 5850 5851 5851 5852 5853 5854 5855 5856 5856 5856 5856 5856 5856 5856 5855 5856 5856 5856 5856 5856 5855 5855 5854 5854 5853 5853 5852 5852 5852 5850 5849 5849 5849 5849 5850 5850 5849 5848 5848 5846 5845 5844 5843 5843 5843
5763 5766 5768 5771 5774 5776 5778 5780 5781 5783 5786 5788 5790 5792 5794 5796 5798 5800 5802 5804 5807 5809 5811 5814 5816 5819 5822 5825 5826 5827 5829 5830 5832 5834 5835 5837 5839 5840 5842 5843 5844 5845 5846 5846 5847 5848 5849 5850 5851 5852 5853 5852 5852 5852 5852 5852 5852 5852 5852 5852 5852 5852 5852 5852 5851 5850 5850 5849 5849 5849 5848 5849 5848 5847 5845 5845 5845 5847 5847 5846 5845 5845 5843 5842 5841 5840 5840 5839
5758 5760 5763 5766 5769 5771 5773 5775 5778 5780 5782 5784 5786 5788 5790 5792 5794 5796 5798 5801 5804 5806 5808 5811 5812 5815 5818 5820 5821 5823 5825 5827 5829 5830 5832 5833 5835 5837 5838 5839 5841 5841 5842 5843 5844 5845 5846 5846 5848 5849 5849 5848 5848 5848 5849 5849 5849 5849 5849 5848 5848 5848 5849 5848 5846 5846 5845 5845 5845 5845 5844 5845 5846 5845 5842 5841 5842 5844 5843 5842 5842 5841 5840 5839 5838 5837 5836 5836
5753 5755 5758 5761 5764 5766 5768 5771 5774 5777 5779 5780 5782 5784 5786 5788 5790 5792 5795 5797 5799 5801 5803 5806 5807 5810 5813 5815 5817 5819 5821 5823 5825 5826 5828 5830 5831 5833 5834 5835 5836 5837 5838 5839 5840 5841 5842 5843 5845 5845 5844 5844 5844 5845 5846 5846 5845 5845 5845 5845 5844 5844 5844 5844 5842 5842 5841 5840 5841 5841 5840 5841 5841 5840 5839 5838 5838 5840 5840 5839 5839 5838 5837 5837 5835 5834 5833 5832
5747 5750 5753 5755 5758 5761 5763 5766 5769 5772 5774 5776 5778 5780 5782 5784 5786 5788 5790 5792 5794 5797 5798 5801 5804 5807 5809 5811 5813 5816 5817 5819 5821 5822 5824 5826 5827 5828 5829 5831 5832 5833 5834 5835 5836 5837 5838 5840 5842 5841 5840 5841 5841 5841 5842 5841 5841 5841 5841 5841 5841 5840 5839 5839 5838 5837 5836 5835 5836 5835 5834 5836 5837 5836 5836 5835 5835 5836 5836 5835 5835 5834 5834 5833 5832 5831 5830 5829
5742 5745 5748 5750 5753 5755 5758 5761 5764 5767 5769 5771 5773 5775 5777 5779 5781 5784 5785 5787 5789 5792 5794 5797 5800 5803 5805 5807 5809 5811 5813 5815 5816 5818 5819 5820 5821 5823 5825 5827 5828 5829 5830 5831 5832 5833 5835 5837 5837 5837 5837 5837 5837 5837 5837 5837 5838 5838 5837 5837 5837 5836 5835 5835 5834 5832 5832 5831 5831 5830 5829 5831 5833 5832 5833 5832 5831 5832 5832 5831 5831 5830 5830 5829 5828 5827 5826 5825
5736 5739 5742 5745 5747 5750 5753 5756 5760 5763 5764 5767 5768 5770 5772 5774 5777 5779 5780 5781 5783 5787 5790 5792 5795 5798 5801 5802 5804 5806 5808 5810 5811 5813 5815 5816 5817 5819 5821 5823 5823 5824 5825 5827 5827 5829 5832 5832 5833 5833 5833 5833 5833 5833 5833 5833 5834 5834 5833 5833 5833 5832 5831 5830 5829 5828 5827 5827 5827 5825 5822 5825 5829 5829 5830 5830 5828 5828 5828 5827 5827 5826 5825 5824 5823 5823 5822 5821
5730 5733 5736 5739 5742 5745 5747 5751 5756 5758 5759 5761 5763 5765 5767 5769 5772 5773 5774 5774 5777 5783 5786 5788 5791 5794 5797 5797 5799 5802 5803 5805 5808 5809 5811 5812 5813 5815 5816 5817 5818 5820 5822 5822 5823 5825 5828 5828 5828 5829 5829 5829 5830 5829 5829 5829 5829 5830 5830 5829 5828 5828 5826 5826 5825 5824 5823 5823 5824 5822 5816 5818 5824 5826 5827 5828 5826 5825 5824 5824 5824 5822 5821 5820 5819 5819 5818 5817
5724 5727 5730 5733 5736 5739 5742 5748 5751 5750 5753 5756 5757 5760 5762 5765 5766 5767 5769 5768 5771 5778 5782 5785 5787 5789 5792 5793 5796 5797 5796 5801 5804 5805 5806 5808 5808 5810 5811 5812 5815 5816 5817 5817 5817 5820 5824 5823 5823 5824 5825 5825 5825 5826 5825 5824 5825 5825 5826 5825 5823 5822 5822 5820 5820 5819 5818 5818 5819 5818 5813 5812 5818 5822 5824 5824 5822 5821 5821 5821 5820 5818 5816 5816 5815 5814 5814 5813
5717 5721 5724 5726 5729 5733 5738 5743 5743 5745 5748 5749 5751 5755 5757 5759 5760 5761 5764 5761 5764 5773 5777 5780 5782 5784 5787 5788 5790 5791 5791 5797 5800 5799 5801 5802 5803 5805 5806 5808 5811 5812 5812 5811 5813 5817 5819 5818 5819 5819 5820 5820 5821 5823 5822 5820 5820 5821 5821 5820 5818 5818 5817 5815 5815 5814 5813 5813 5812 5812 5811 5810 5811 5816 5819 5818 5817 5818 5819 5818 5816 5814 5812 5812 5811 5810 5809 5808
5712 5715 5717 5720 5723 5727 5732 5735 5737 5740 5741 5742 5746 5749 5750 5752 5753 5756 5756 5753 5758 5768 5771 5774 5777 5779 5781 5782 5784 5784 5786 5792 5793 5793 5796 5796 5797 5800 5802 5804 5806 5806 5806 5806 5809 5813 5813 5813 5814 5814 5815 5816 5818 5818 5817 5815 5815 5816 5816 5815 5814 5814 5812 5811 5810 5808 5808 5807 5805 5807 5810 5808 5806 5810 5812 5811 5813 5815 5815 5814 5812 5810 5809 5808 5807 5805 5804 5803
5705 5708 5711 5714 5717 5721 5725 5728 5732 5733 5733 5737 5741 5741 5744 5745 5746 5749 5747 5746 5755 5762 5765 5768 5771 5773 5775 5775 5778 5779 5781 5785 5787 5789 5791 5791 5792 5795 5797 5800 5800 5800 5801 5802 5805 5808 5806 5807 5809 5809 5811 5812 5813 5813 5811 5811 5811 5811 5812 5810 5810 5809 5808 5807 5805 5804 5804 5801 5801 5805 5808 5805 5802 5804 5805 5805 5808 5811 5810 5809 5807 5806 5805 5803 5802 5801 5800 5799
5698 5702 5704 5706 5711 5716 5719 5724 5727 5726 5728 5732 5733 5735 5737 5737 5739 5740 5736 5742 5754 5757 5758 5762 5765 5768 5770 5770 5772 5774 5777 5779 5782 5784 5784 5786 5788 5790 5792 5794 5795 5795 5796 5798 5800 5802 5801 5802 5803 5804 5806 5808 5808 5807 5807 5806 5806 5807 5807 5806 5805 5804 5804 5803 5801 5801 5799 5796 5799 5803 5804 5803 5797 5797 5800 5801 5804 5806 5805 5804 5803 5801 5800 5799 5798 5796 5795 5794
5693 5696 5697 5700 5707 5710 5714 5719 5721 5721 5723 5725 5727 5729 5728 5730 5732 5728 5728 5743 5752 5750 5750 5754 5759 5763 5765 5766 5767 5769 5772 5774 5776 5778 5778 5781 5783 5784 5787 5788 5789 5790 5791 5793 5795 5797 5797 5797 5798 5798 5800 5801 5801 5802 5802 5802 5802 5802 5802 5802 5801 5799 5798 5797 5796 5797 5794 5793 5798 5799 5799 5797 5790 5791 5796 5796 5798 5800 5799 5798 5797 5796 5795 5793 5793 5791 5790 5789
5687 5689 5691 5695 5700 5702 5708 5713 5713 5713 5715 5718 5721 5721 5721 5721 5719 5717 5729 5743 5743 5740 5743 5746 5751 5757 5758 5760 5761 5763 5765 5767 5770 5771 5772 5774 5775 5778 5781 5782 5784 5784 5785 5788 5790 5790 5791 5791 5792 5792 5793 5794 5795 5797 5797 5797 5797 5798 5798 5797 5795 5793 5792 5791 5791 5791 5790 5791 5793 5793 5792 5789 5785 5789 5794 5793 5793 5794 5793 5793 5792 5791 5789 5787 5787 5786 5785 5785
5681 5684 5685 5688 5692 5696 5702 5705 5704 5705 5707 5711 5713 5713 5712 5708 5706 5715 5729 5734 5732 5735 5740 5741 5744 5748 5749 5752 5755 5757 5759 5760 5763 5765 5766 5767 5768 5772 5775 5776 5779 5779 5780 5784 5783 5783 5784 5785 5786 5787 5788 5789 5790 5791 5791 5791 5791 5791 5791 5790 5789 5788 5786 5785 5786 5786 5786 5787 5787 5787 5785 5781 5780 5786 5790 5790 5790 5789 5789 5789 5786 5785 5784 5781 5781 5781 5781 5781
5675 5677 5678 5682 5686 5689 5694 5695 5695 5697 5699 5702 5704 5704 5700 5695 5702 5716 5723 5725 5727 5731 5734 5734 5736 5738 5740 5745 5749 5752 5754 5755 5757 5759 5759 5761 5763 5766 5769 5771 5773 5774 5775 5777 5776 5776 5777 5778 5781 5782 5783 5784 5784 5785 5785 5784 5784 5783 5784 5783 5782 5782 5781 5781 5782 5781 5780 5781 5780 5780 5778 5775 5777 5782 5783 5784 5786 5786 5786 5784 5781 5779 5777 5775 5775 5776 5777 5777
5669 5671 5672 5675 5678 5682 5686 5688 5689 5690 5690 5692 5693 5690 5686 5689 5702 5712 5714 5719 5723 5724 5726 5726 5726 5729 5732 5737 5741 5745 5747 5749 5751 5752 5752 5754 5757 5761 5763 5765 5767 5767 5769 5769 5769 5770 5770 5771 5776 5777 5777 5778 5778 5778 5778 5777 5777 5777 5777 5776 5776 5779 5779 5777 5777 5775 5774 5773 5772 5772 5771 5772 5775 5776 5776 5777 5780 5781 5781 5779 5776 5773 5771 5771 5771 5772 5773 5773
5663 5665 5666 5666 5671 5677 5680 5680 5683 5683 5682 5683 5680 5675 5678 5689 5701 5706 5709 5714 5716 5717 5720 5719 5718 5722 5725 5728 5733 5737 5739 5741 5743 5744 5746 5748 5750 5754 5757 5759 5760 5761 5762 5763 5763 5764 5764 5766 5769 5770 5769 5771 5770 5770 5771 5770 5770 5770 5770 5770 5772 5774 5773 5772 5770 5770 5769 5766 5766 5766 5766 5768 5770 5769 5771 5774 5775 5776 5774 5772 5770 5768 5767 5767 5767 5768 5768 5769
5656 5658 5657 5660 5666 5671 5672 5673 5676 5675 5674 5674 5669 5667 5677 5688 5695 5700 5704 5707 5708 5710 5713 5711 5711 5715 5718 5720 5724 5728 5731 5733 5734 5736 5739 5741 5742 5747 5750 5752 5753 5755 5757 5757 5756 5757 5758 5759 5761 5762 5762 5763 5764 5764 5764 5764 5764 5763 5763 5766 5767 5767 5766 5765 5764 5765 5764 5762 5761 5762 5761 5763 5764 5763 5766 5769 5770 5770 5767 5765 5764 5764 5764 5763 5763 5764 5764 5764
5650 5650 5650 5656 5662 5663 5665 5667 5666 5666 5665 5663 5660 5664 5673 5681 5688 5693 5695 5698 5700 5701 5702 5703 5705 5709 5710 5712 5716 5720 5722 5723 5726 5729 5731 5733 5736 5741 5744 5745 5747 5749 5750 5749 5748 5750 5752 5751 5753 5755 5756 5756 5757 5757 5757 5757 5757 5758 5759 5761 5761 5760 5759 5759 5759 5759 5759 5756 5756 5757 5757 5758 5759 5759 5761 5763 5764 5764 5762 5760 5760 5760 5760 5759 5759 5760 5760 5760
5642 5641 5642 5652 5656 5655 5659 5660 5660 5658 5654 5651 5654 5661 5668 5674 5681 5684 5685 5689 5691 5691 5693 5697 5700 5702 5703 5706 5709 5712 5713 5715 5719 5721 5723 5726 5730 5735 5738 5739 5741 5742 5741 5741 5741 5743 5745 5745 5746 5748 5749 5749 5749 5750 5750 5752 5753 5754 5755 5755 5754 5753 5753 5753 5753 5753 5753 5752 5751 5753 5753 5752 5753 5755 5756 5756 5759 5759 5756 5755 5756 5756 5756 5756 5756 5756 5756 5756
5633 5632 5636 5647 5648 5648 5653 5653 5651 5647 5643 5644 5652 5658 5663 5668 5673 5675 5677 5680 5681 5682 5687 5692 5693 5694 5696 5700 5702 5704 5705 5707 5711 5713 5715 5719 5723 5727 5730 5731 5733 5734 5733 5733 5735 5736 5737 5737 5739 5740 5741 5742 5742 5744 5746 5748 5749 5748 5748 5747 5747 5747 5746 5746 5746 5747 5748 5748 5748 5748 5747 5745 5747 5748 5748 5751 5754 5754 5752 5752 5752 5752 5752 5752 5752 5751 5752 5753
5625 5624 5630 5640 5640 5642 5645 5641 5637 5637 5635 5640 5648 5652 5656 5661 5665 5668 5670 5671 5672 5676 5681 5684 5686 5687 5690 5693 5695 5697 5698 5699 5702 5704 5707 5712 5717 5720 5722 5724 5725 5726 5726 5726 5729 5730 5729 5731 5733 5734 5735 5736 5737 5740 5741 5740 5741 5740 5740 5740 5740 5740 5740 5740 5741 5743 5744 5745 5745 5744 5741 5741 5742 5741 5742 5747 5749 5749 5748 5747 5748 5748 5748 5748 5748 5747 5748 5749
5615 5616 5623 5630 5631 5634 5635 5629 5628 5630 5629 5635 5644 5647 5649 5654 5659 5662 5662 5664 5666 5669 5674 5676 5678 5681 5683 5686 5689 5690 5691 5691 5694 5696 5700 5705 5710 5713 5715 5716 5717 5718 5718 5720 5722 5723 5722 5723 5725 5726 5728 5730 5730 5731 5732 5732 5733 5733 5733 5733 5734 5735 5736 5736 5738 5739 5739 5739 5739 5737 5735 5737 5737 5736 5740 5743 5743 5743 5743 5743 5743 5744 5744 5743 5743 5743 5744 5744
5605 5611 5618 5621 5622 5625 5625 5621 5622 5623 5623 5631 5638 5639 5642 5648 5652 5654 5656 5658 5660 5663 5667 5670 5672 5674 5677 5681 5682 5683 5684 5685 5687 5690 5694 5698 5702 5705 5707 5708 5709 5709 5710 5712 5714 5715 5714 5714 5716 5719 5721 5723 5723 5724 5725 5725 5725 5724 5725 5728 5730 5732 5733 5733 5732 5733 5732 5732 5732 5730 5729 5731 5732 5733 5737 5738 5737 5737 5737 5737 5738 5738 5738 5739 5739 5739 5740 5740
5599 5605 5609 5611 5613 5615 5613 5612 5615 5616 5619 5627 5630 5630 5635 5639 5642 5645 5649 5651 5653 5656 5659 5662 5665 5668 5671 5673 5674 5676 5678 5678 5680 5684 5688 5690 5693 5697 5698 5698 5700 5701 5702 5705 5707 5707 5706 5707 5710 5712 5713 5716 5716 5717 5718 5718 5717 5719 5722 5724 5725 5726 5726 5725 5725 5725 5724 5725 5726 5722 5722 5726 5728 5730 5732 5732 5731 5731 5731 5731 5732 5732 5733 5733 5734 5735 5736 5736
5590 5593 5596 5601 5604 5604 5603 5606 5610 5612 5615 5619 5621 5624 5628 5630 5634 5639 5642 5644 5647 5649 5652 5655 5659 5661 5664 5666 5667 5669 5671 5672 5674 5677 5680 5682 5685 5688 5688 5689 5691 5693 5695 5698 5699 5699 5698 5700 5703 5703 5704 5708 5710 5712 5714 5714 5714 5715 5717 5718 5717 5718 5718 5717 5718 5717 5715 5717 5717 5715 5717 5722 5724 5725 5726 5725 5725 5725 5725 5725 5726 5727 5727 5727 5729 5730 5731 5732
5577 5579 5585 5591 5594 5593 5595 5601 5604 5603 5607 5610 5612 5616 5620 5624 5629 5633 5634 5637 5640 5643 5646 5649 5651 5653 5655 5658 5660 5662 5664 5666 5668 5669 5672 5675 5678 5679 5681 5682 5684 5686 5688 5689 5691 5692 5691 5692 5695 5696 5698 5703 5707 5708 5708 5708 5707 5707 5709 5710 5710 5710 5710 5709 5708 5708 5708 5709 5710 5711 5714 5716 5718 5720 5719 5719 5718 5717 5718 5719 5720 5721 5721 5721 5723 5724 5726 5726
5564 5567 5576 5582 5584 5585 5588 5593 5594 5594 5599 5602 5604 5608 5612 5618 5622 5623 5625 5630 5634 5637 5639 5640 5643 5645 5648 5652 5655 5657 5659 5660 5660 5663 5666 5669 5671 5673 5674 5676 5677 5679 5680 5682 5684 5685 5684 5685 5689 5691 5693 5699 5702 5700 5699 5700 5699 5700 5701 5702 5703 5703 5703 5701 5700 5702 5703 5701 5703 5709 5709 5709 5713 5715 5713 5712 5711 5712 5713 5713 5714 5715 5715 5715 5716 5718 5719 5719
5552 5559 5568 5572 5574 5576 5581 5586 5589 5590 5593 5596 5597 5601 5604 5609 5611 5612 5618 5625 5627 5628 5629 5630 5635 5640 5644 5648 5650 5650 5652 5653 5653 5657 5661 5662 5664 5666 5668 5670 5671 5672 5674 5677 5679 5678 5677 5680 5684 5685 5686 5692 5694 5691 5692 5693 5692 5693 5694 5695 5697 5697 5696 5695 5695 5698 5697 5693 5697 5703 5702 5702 5707 5709 5708 5708 5707 5707 5708 5707 5708 5708 5709 5708 5709 5710 5711 5711
5544 5551 5558 5561 5563 5568 5576 5582 5584 5584 5585 5588 5590 5593 5595 5599 5602 5606 5613 5616 5615 5618 5621 5624 5632 5638 5640 5641 5641 5641 5644 5646 5649 5653 5655 5657 5658 5660 5662 5663 5665 5667 5669 5671 5674 5673 5671 5674 5678 5678 5679 5685 5686 5684 5685 5686 5685 5686 5688 5689 5692 5692 5690 5689 5689 5691 5689 5687 5692 5697 5695 5697 5701 5702 5702 5703 5703 5703 5702 5702 5701 5701 5702 5702 5701 5702 5703 5704
5535 5542 5549 5552 5555 5562 5569 5572 5573 5573 5576 5580 5581 5584 5588 5591 5596 5602 5605 5605 5607 5612 5615 5620 5629 5633 5632 5632 5632 5633 5638 5643 5646 5649 5650 5650 5652 5654 5656 5657 5659 5662 5662 5664 5666 5666 5666 5668 5671 5671 5672 5677 5680 5677 5677 5678 5678 5679 5681 5684 5687 5685 5682 5681 5683 5685 5684 5683 5689 5691 5689 5692 5696 5696 5696 5696 5696 5696 5696 5695 5695 5695 5695 5695 5695 5696 5697 5697
5528 5534 5540 5542 5545 5552 5558 5560 5563 5564 5567 5569 5572 5577 5581 5585 5591 5596 5596 5597 5602 5606 5608 5616 5624 5625 5623 5623 5624 5629 5637 5640 5641 5642 5643 5644 5646 5649 5650 5652 5654 5654 5655 5656 5657 5658 5660 5662 5664 5665 5664 5668 5673 5670 5669 5672 5671 5670 5675 5680 5679 5675 5674 5676 5679 5681 5680 5681 5684 5683 5683 5688 5691 5690 5689 5688 5688 5689 5690 5690 5690 5689 5689 5688 5688 5689 5690 5690
5520 5525 5530 5531 5534 5540 5546 5549 5552 5553 5555 5561 5567 5571 5575 5580 5586 5588 5586 5588 5594 5598 5602 5609 5614 5613 5612 5614 5620 5630 5634 5632 5632 5634 5634 5635 5639 5641 5641 5643 5645 5646 5647 5649 5649 5651 5653 5655 5657 5658 5656 5660 5665 5662 5663 5666 5662 5661 5671 5677 5673 5670 5672 5674 5675 5675 5675 5675 5675 5674 5677 5683 5684 5682 5683 5683 5683 5683 5684 5684 5684 5683 5682 5682 5682 5683 5683 5683